Weather History for Baltimore Martin, MD

Change the Weather History Date:

Friday, August 9, 2013

  Actual Average Record
Temperature  
Mean Temperature 83 °F -  
Max Temperature 89 °F 82 °F 93 °F (2001)
Min Temperature 77 °F 67 °F 59 °F (1997)
Cooling Degree Days 18    
Growing Degree Days 33 (Base 50)    
Moisture  
Dew Point 76 °F    
Average Humidity 88    
Maximum Humidity 100    
Minimum Humidity 59    
Precipitation  
Precipitation 0.00 in - - ()
Sea Level Pressure  
Sea Level Pressure 29.93 in    
Wind  
Wind Speed 8 mph (South)    
Max Wind Speed 17 mph    
Max Gust Speed -    
Visibility 9 miles    
Events Rain , Thunderstorm    
Averages and records for this station are not official NWS values.
T = Trace of Precipitation, MM = Missing Value Source: NWS Daily Summary

Daily Weather History Graph

Daily Weather History Graph

Search for Another Location

Airport:

Trip Planner

Search our weather history database for the weather conditions in past years. The results will help you decide how hot, cold, wet, or windy it might be!

Date:

Astronomy

Aug. 09, 2013 Rise Set
Actual Time 6:13 AM EDT 8:08 PM EDT
Civil Twilight 5:43 AM EDT 8:37 PM EDT
Nautical Twilight 5:08 AM EDT 9:12 PM EDT
Astronomical Twilight 4:30 AM EDT 9:50 PM EDT
Moon 8:55 AM EDT (8/9) 9:18 PM EDT (8/9)
Length of Visible Light 14h 53m
Length of Day
13h 55m
Waxing Crescent, 7% of the Moon is Illuminated
Aug 9
Waxing Crescent
Aug 14
First Quarter
Aug 20
Full
Aug 28
Last Quarter
Sep 5
New

Hourly Weather History & Observations

Time (EDT) Temp. Heat Index Dew Point Humidity Pressure Visibility Wind Dir Wind Speed Gust Speed Precip Events Conditions
12:15 AM 77.0 °F - 77.0 °F 100% 29.99 in 10.0 mi SE 12.7 mph - N/A   Clear
12:36 AM 77.0 °F - 77.0 °F 100% 29.99 in 10.0 mi SSE 9.2 mph - N/A   Scattered Clouds
12:57 AM 77.0 °F - 77.0 °F 100% 29.99 in 10.0 mi SE 8.1 mph - N/A   Mostly Cloudy
1:15 AM 77.0 °F - 77.0 °F 100% 29.98 in 10.0 mi SE 10.4 mph - N/A   Mostly Cloudy
1:36 AM 77.0 °F - 77.0 °F 100% 29.98 in 10.0 mi SSE 9.2 mph - N/A   Mostly Cloudy
1:57 AM 78.8 °F - 77.0 °F 94% 29.98 in 10.0 mi SSE 6.9 mph - N/A   Overcast
2:15 AM 78.8 °F - 77.0 °F 94% 29.97 in 10.0 mi SSE 8.1 mph - N/A   Overcast
2:36 AM 77.0 °F - 77.0 °F 100% 29.97 in 10.0 mi SSE 6.9 mph - N/A   Overcast
2:57 AM 77.0 °F - 77.0 °F 100% 29.97 in 10.0 mi SSE 5.8 mph - N/A   Mostly Cloudy
3:15 AM 77.0 °F - 77.0 °F 100% 29.96 in 10.0 mi SSE 5.8 mph - N/A   Scattered Clouds
3:36 AM 77.0 °F - 77.0 °F 100% 29.96 in 10.0 mi SSE 5.8 mph - N/A   Clear
3:57 AM 77.0 °F - 77.0 °F 100% 29.95 in 10.0 mi SSE 3.5 mph - N/A   Clear
4:15 AM 77.0 °F - 77.0 °F 100% 29.95 in 10.0 mi SSE 4.6 mph - N/A   Clear
4:36 AM 77.0 °F - 77.0 °F 100% 29.95 in 10.0 mi SSE 5.8 mph - N/A   Clear
4:57 AM 77.0 °F - 77.0 °F 100% 29.94 in 10.0 mi SSE 4.6 mph - N/A   Clear
5:15 AM 77.0 °F - 77.0 °F 100% 29.94 in 10.0 mi SSE 5.8 mph - N/A Rain Light Rain
5:33 AM 77.0 °F - 75.2 °F 94% 29.94 in 10.0 mi SSE 6.9 mph - N/A   Scattered Clouds
5:55 AM 78.8 °F - 75.2 °F 89% 29.94 in 7.0 mi SSE 5.8 mph - N/A   Overcast
6:45 AM 78.8 °F - 75.2 °F 89% 29.93 in 7.0 mi South 6.9 mph - N/A   Mostly Cloudy
7:45 AM 80.6 °F 86.2 °F 75.2 °F 84% 29.93 in 7.0 mi SSW 8.1 mph - N/A   Mostly Cloudy
8:45 AM 80.6 °F 86.2 °F 75.2 °F 84% 29.93 in 7.0 mi South 5.8 mph - N/A   Mostly Cloudy
9:45 AM 82.4 °F 90.9 °F 77.0 °F 84% 29.92 in 10.0 mi South 8.1 mph - N/A   Mostly Cloudy
10:53 AM 84.2 °F 94.1 °F 77.0 °F 79% 29.92 in 10.0 mi SSW 5.8 mph - N/A   Mostly Cloudy
11:45 AM 87.8 °F 97.6 °F 75.2 °F 66% 29.92 in 10.0 mi SW 6.9 mph - N/A   Scattered Clouds
12:45 PM 87.8 °F 97.6 °F 75.2 °F 66% 29.90 in 10.0 mi SW 6.9 mph - N/A   Scattered Clouds
1:55 PM 89.6 °F 98.2 °F 73.4 °F 59% 29.89 in 10.0 mi WSW 8.1 mph - N/A   Mostly Cloudy
3:45 PM 87.8 °F 99.7 °F 77.0 °F 70% 29.87 in 10.0 mi SW 8.1 mph - N/A   Mostly Cloudy
4:45 PM 82.4 °F 92.4 °F 78.8 °F 89% 29.90 in 2.5 mi West 17.3 mph - N/A Rain , Thunderstorm Heavy Thunderstorms and Rain
5:08 PM 78.8 °F - 78.8 °F 100% 29.87 in 7.0 mi North 6.9 mph - N/A Rain Light Rain
5:55 PM 82.4 °F 92.4 °F 78.8 °F 89% 29.87 in 10.0 mi South 5.8 mph - N/A   Mostly Cloudy
6:50 PM 82.4 °F 90.9 °F 77.0 °F 84% 29.87 in 10.0 mi South 5.8 mph - N/A   Mostly Cloudy
7:50 PM 82.4 °F 90.9 °F 77.0 °F 84% 29.88 in 10.0 mi SW 5.8 mph - N/A   Mostly Cloudy
8:50 PM 82.4 °F 89.5 °F 75.2 °F 79% 29.90 in 10.0 mi WSW 6.9 mph - N/A   Mostly Cloudy
9:45 PM 82.4 °F 88.2 °F 73.4 °F 74% 29.92 in 10.0 mi WSW 6.9 mph - N/A   Mostly Cloudy
10:18 PM 80.6 °F 85.4 °F 73.4 °F 79% 29.93 in 10.0 mi WSW 4.6 mph - N/A   Clear
10:39 PM 80.6 °F 85.4 °F 73.4 °F 79% 29.93 in 10.0 mi WSW 3.5 mph - N/A   Clear
11:00 PM 80.6 °F 85.4 °F 73.4 °F 79% 29.93 in 10.0 mi WSW 4.6 mph - N/A   Clear
11:18 PM 80.6 °F 85.4 °F 73.4 °F 79% 29.94 in 10.0 mi WSW 3.5 mph - N/A   Clear
11:39 PM 80.6 °F 85.4 °F 73.4 °F 79% 29.94 in 10.0 mi WSW 4.6 mph - N/A   Clear